Погода Ефимовская

Поиск расширенной информации на нашем сайте:

Полезная информация:

Новости сайта



02.01.2020
Опубликован Долгосрочный прогноз погоды по городам России и ближнего зарубежья на январь 2020 года.
Карты: Прогноз на январь и февраль 2020 года, Сравнение прогнозируемой аномалии приземной температуры воздуха на январь 2020 года по разным моделям.




Погода Ефимовская - сегодня

Время (UTC), дата Ветер
(°,м/с) 
Видим.   Явления Облачность Т
(°С)
Тd
(°С)
f(%) Тe
(°С)
Pmin
(гПа)
dP
(гПа)
Po
(мм)
O2
(г/м3)
Тmin Tmax R s Состояние
почвы
15 29.11.20 100 (В) н/о    н/о 
-3.4 -4.1 95 -6  1031.8  -0.5  757  309           
18 29.11.20 100 (В) 50000 м    10/10 240 м 
[St]
-2.8 -3.1 98 -5  1030.8  -0.9  756  308    -2.8       
21 29.11.20 110 (В) н/о    н/о 
-1.5 -1.9 97 -3  1029.5  -1.2  755  306           
00 30.11.20 120 (ЮВ) н/о    н/о 
-0.8 -1.1 98 -3  1028.6  -0.8  755  305           
03 30.11.20 130 (ЮВ) н/о    н/о 
+0.2 -0.2 97 -2  1027.4  -1.1  754  304  -3.4    0.1     
06 30.11.20 130 (ЮВ) 20000 м    10/10 360 м 
[St]
+0.5 +0.4 99 -1  1026.8  -0.5  754  303  -2.8      мокрый или
старый снег
50-90% 
09 30.11.20 130 (ЮВ) н/о    н/о 
+0.5 +0.2 98 -1  1025.8  -1  753  303           
12 30.11.20 130 (ЮВ) н/о    н/о 
+0.2 -0.1 98 -2  1024.4  -1.4  752  303           
15 30.11.20 140 (ЮВ) н/о    н/о 
+0.1 -0.2 98 -2  1023.3  -1.1  751  302         
18 30.11.20 170 (Ю) 4000 м  слаб. снег  10/10 270 м 
[Frnb|Ns]
+0.1 +0 99 -2  1023.1  -0.2  751  302    +0.6     
21 30.11.20 220 (ЮЗ) н/о    н/о 
-0.4 -0.7 98 -2  1023.8  0.6  751  303           
00 01.12.20 170 (Ю) н/о    н/о 
-2.4 -3 96 -3  1024.2  0.3  751  306           
03 01.12.20 160 (Ю) н/о    н/о 
-2 -2.9 94 -4  1024.1  -0.1  751  305  -3.1    0.9     
06 01.12.20 170 (Ю) 50000 м    10/9 480 м средняя 
[St|As op]
-1.5 -2.5 93 -3  1024.7  0.6  752  305  -3.1    0.3  равномерный
мокрый или
старый снег
100% 
09 01.12.20 190 (Ю) н/о    н/о 
-1 -2.1 92 -3  1025.8  1.2  753  305           
12 01.12.20 200 (Ю) н/о    н/о 
-0.8 -1.9 92 -2  1027  1.1  754  305           
15 01.12.20 210 (ЮЗ) н/о    н/о 
-0.9 -1.7 94 1028.9  1.9  755  305      0.1     
21 01.12.20 230 (ЮЗ) н/о    н/о 
-1.1 -2.4 91 -2  1031.3  757  306           
00 02.12.20 210 (ЮЗ) н/о    н/о 
-1.3 -2.1 94 -1  1032.1  0.8  757  307           
03 02.12.20 //0 (С) //  н/о    н/о 
    -1.4    0.1     
06 02.12.20 190 (Ю) 50000 м    10/10 330 м 
[St]
-1.4 -1.8 97 -1  1033.2  758  307  -1.4    0.0  равномерный
мокрый или
старый снег
100% 
09 02.12.20 210 (ЮЗ) н/о    н/о 
-1 -1.6 96 1033.9  0.7  759  307           
12 02.12.20 200 (Ю) н/о    н/о 
-1 -1.6 96 1034.1  0.2  759  307           
15 02.12.20 //0 (С) //  н/о    н/о 
             
18 02.12.20 160 (Ю) 50000 м    10/10 210 м 
[St]
-1.5 -2.1 96 -2  1033.5  758  307    -0.8  0.0     
Время (UTC), дата Ветер
(°,м/с) 
Видим.   Явления Облачность Т
(°С)
Тd
(°С)
f(%) Тe
(°С)
Pmin
(гПа)
dP
(гПа)
Po
(мм)
O2
(г/м3)
Тmin Tmax R s Состояние
почвы

Для получения пояснительной информации подведите курсор к названию столбца.

ПОГОДА Ефимовская - архив

Всё, что Вы хотите узнать о погоде Ефимовская - удобно и подробно!

Выберите нужную дату (начиная с 1 января 2019* года) и нажмите кнопку "Найти".
Будут отображены архивные сводки погоды по пункту Ефимовская, начиная с указанной даты.


Отображать данные в формате CSV (для использования в таблицах Excel)


Внимание! Наш архив погоды предназначен исключительно для личного некоммерческого использования в познавательных целях. Если Вам необходимы официальные справки о состоянии погоды (для производственных, юридических, коммерческих и т.п. целей), обращайтесь в органы Росгидромета.

*Примечание: данная дата относится к архиву по метеостанциям СССР (Россия, СНГ, Балтия).
Архив по метеостанциям Зарубежной Европы и Азии (кроме Китая) хранится 10 дней, по другим регионам земного шара (Китай, Африка, Америка, Австралия, Океания) - 1 день.

Ефимовская - район местоположения метеостанции


Название, широта, долгота, высота метеостанции:
Ефимовская 59.5°ш. 34.7°д. 176 м над ур. моря [Российская Федерация]

Дополнительная информация

В oтличие oт бoльшинства пoгoдных сайтoв мы публикуем пoдрoбную метеoинфoрмацию в детальнoм прoфессиoнальнoм фoрмате.

Характеристики температуры и влажнoсти вoздуха измеряются на высoте 2 м в тени вдали oт зданий и деревьев.
Скoрoсть ветра измеряется на высoте 10 м (на урoвне рoста челoвека скoрoсть ветра ниже в 1.5-2 раза). Если метеoстанция нахoдится в гoрoде или в лесу, тo скoрoсть ветра занижена на 2-4 м/с пo сравнению с oткрытым местoм. Скoрoсть ветра над акватoриями крупных рек и oзёр, а также на вершинах хoлмoв на 2-5 м/с выше, чем в oбычных услoвиях.
Атмoсфернoе давление в разных тoчках местнoсти мoжет значительнo oтличаться oт давления на метеoстанции, в зависимoсти oт услoвий рельефа (при пoдъёме на 10 м давление пoнижается примернo на 1 мм рт.ст.).